Вернуться в каталог

STARLINK-37221

АктивенСвязьSSO
NORAD 68668·PAYLOAD·🇺🇸 United States

Запущен Apr 11, 2026 с Vandenberg Space Force Base

Loading…

Ближайшие Пролёты (ближайшие 24 часа)

TLE

СвежийSource: CelesTrak SupGP

Эпоха: Sep 14, 2026, 21:27 UTC

1 68668C 26077G   26257.89423611  .00010435  00000+0  32409-3 0  2572
2 68668  97.2845 127.8796 0001920  94.3774 303.6740 15.33417575    12

Отслеживайте STARLINK-37221 в реальном времени с AllMySat

Download on the App Store